Tracking 29892 objects as of 21-Nov-2024
HD Live streaming from Space Station
objects crossing your sky now

STARLINK-1908

Track STARLINK-1908 now!
10-day predictions
STARLINK-1908 is classified as:


NORAD ID: 46747
Int'l Code: 2020-074J
Perigee: 446.2 km
Apogee: 447.9 km
Inclination: 53.1 °
Period: 93.4 minutes
Semi major axis: 6818 km
RCS: Unknown
Launch date: October 24, 2020
Source: United States (US)
Launch site: AIR FORCE EASTERN TEST RANGE (AFETR)
Your satellite tracking list
Your tracking list is empty




NASA's NSSDC Master Catalog

Two Line Element Set (TLE):
1 46747U 20074J   24326.25001157  .01236263  00000-0  26149-1 0  9995
2 46747  53.0528 284.8565 0001257  83.7467  61.5178 15.42109365225363
Source of the keplerian elements: AFSPC